Regional Weather Roundup
Issued by NWS

Home | Current Version | Previous Version | Graphics & Text | Print | Product List | Glossary On
Versions: 1 2 3 4 5 6 7 8 9 10 11 12 13 14 15 16 17 18 19 20 21 22 23 24 25 26 27 28 29 30 31 32 33 34 35 36 37 38 39 40 41 42 43 44 45 46 47 48 49 50
714
ASUS43 KMPX 220210
RWRMN
WEATHER ROUNDUP FOR MINNESOTA
NATIONAL WEATHER SERVICE TWIN CITIES/CHANHASSEN MN
800 PM CST TUE NOV 21 2017


NOTE: "FAIR" INDICATES FEW OR NO CLOUDS BELOW 12,000 FEET WITH NO
SIGNIFICANT WEATHER AND/OR OBSTRUCTIONS TO VISIBILITY. N/A MEANS
CURRENT SKY AND/OR WEATHER CONDITIONS ARE NOT AVAILABLE.

MNZ060>063-068>070-220300-
   Twin Cities Metro

CITY           SKY/WX    TMP DP  RH WIND       PRES   REMARKS
TWIN CITIES    CLEAR     22  10  60 NW23G29   30.28R WCI   6
ST PAUL        CLEAR     22  10  60 NW15      30.30R WCI   9
CRYSTAL        CLEAR     21   7  54 NW15G24   30.29R WCI   8
BLAINE         CLEAR     21  10  63 NW18      30.28R WCI   6
LAKEVILLE      CLEAR     19  12  73 NW9G20    30.27S WCI   9
EDEN PRAIRIE   CLEAR     23  11  60 NW13G23   30.28R WCI  11
SOUTH ST PAUL  CLEAR     23  10  56 NW15G22   30.28R WCI  10
LAKE ELMO      FAIR      23  12  63 NW17      30.28R WCI   9
$$
MNZ001>005-007-008-013>017-022>024-027-028-220300-
   Northwest Minnesota

CITY           SKY/WX    TMP DP  RH WIND       PRES   REMARKS
BEMIDJI        CLEAR     12   8  84 W8        30.26S WCI   0
HALLOCK        CLOUDY    16  10  79 W8        30.29F WCI   5
ROSEAU         CLOUDY    16  10  79 W6        30.26S WCI   7
WARROAD        CLEAR     12   9  85 W5        30.25S WCI   4
THIEF RVR FALL CLOUDY    14  10  84 W7        30.29F WCI   4
CROOKSTON      CLOUDY    16  10  79 W8        30.33S WCI   5
FOSSTON        CLOUDY    10   7  85 W5        30.29S WCI   2
DETROIT LAKES  CLOUDY    16  12  86 W6        30.31F WCI   7
MOORHEAD       CLOUDY    16   9  73 CALM      30.36F
PARK RAPIDS    CLEAR     13   7  77 NW5       30.27S WCI   5
MAHNOMEN       FAIR      14   9  81 W7        30.30S WCI   4
$$
MNZ006-009>011-018-025>026-220300-
   North Central Minnesota

CITY           SKY/WX    TMP DP  RH WIND       PRES   REMARKS
BAUDETTE       CLEAR     13   7  77 W7        30.22F WCI   3
FLAG ISLAND    CLEAR     14   9  79 W9        30.21F WCI   2
INTL FALLS       N/A     14   9  80 NW5       30.21R WCI   6
WASKISH        CLEAR     16  10  79 W9        30.25S WCI   4
BIG FORK       FLURRIES  18  10  73 W7        30.22F WCI   8
LONGVILLE      CLOUDY    16   9  73 NW7       30.26F WCI   6
GRAND RAPIDS   FLURRIES  17   9  70 NW13G20   30.25F WCI   4
CRANE LAKE     LGT SNOW  16  10  79 W5        30.22R WCI   9
ORR            FLURRIES  16   9  73 W8        30.18R WCI   5
COOK           FLURRIES  16  10  79 W9G16     30.21R WCI   4
WALKER         FAIR      13   7  77 W8        30.27S WCI   1
$$
MNZ012-019>021-037-220300-
   Northeast Minnesota

CITY           SKY/WX    TMP DP  RH WIND       PRES   REMARKS
DULUTH         FLURRIES  15   8  73 NW12      30.20R WCI   2
ELY            CLOUDY    16   9  73 W8G18     30.16R WCI   5
HIBBING        CLOUDY    14   8  77 NW12      30.21R WCI   0
EVELETH        FLURRIES  15   7  72 W7        30.21R WCI   5
DULUTH HARBOR  CLOUDY    21  10  63 NW14G20   30.28S WCI   8
TWO HARBORS    CLOUDY    19  10  68 W3        30.20R
SILVER BAY     CLOUDY    19  10  68 W5        30.18R WCI  13
GRAND MARAIS     N/A     22  12  65 CALM      30.17R
G MARAIS ARPRT FLURRIES  14   7  73 W6G16     30.07R WCI   5
$$
MNZ029>031-032-039>041-046>048-054>057-064-220300-
   West Central Minnesota

CITY           SKY/WX    TMP DP  RH WIND       PRES   REMARKS
FERGUS FALLS   CLOUDY    14   9  79 NW8       30.38F WCI   3
WHEATON        CLOUDY    18   9  68 W7        30.38F WCI   8
MORRIS         CLOUDY    18  10  73 NW8       30.34S WCI   7
ALEXANDRIA     CLOUDY    17   9  70 NW12      30.30F WCI   4
ELBOW LAKE     FAIR      16  10  77 W9        30.34S WCI   4
WADENA         CLOUDY    12   9  85 W5        30.30S WCI   4
GLENWOOD       CLOUDY    18  10  73 NW14G20   30.31S WCI   4
APPLETON       CLOUDY    19  10  68 NW9       30.37R WCI   9
BENSON         CLOUDY    16  10  79 NW9       30.36S WCI   4
ORTONVILLE     CLOUDY    19   9  63 MISG      30.36S
MADISON        CLOUDY    19  10  68 NW7       30.37S WCI  10
WILLMAR        FAIR      19  12  73 NW9       30.34S WCI   9
$$
MNZ033>034-036-042>043-049>051-058-059-220300-
   Central Minnesota

CITY           SKY/WX    TMP DP  RH WIND       PRES   REMARKS
ST CLOUD       CLEAR     18  10  71 NW9       30.30R WCI   7
SAUK CENTRE    FAIR      18  11  74 NW10      30.31S WCI   6
PAYNESVILLE    CLEAR     18  13  82 W7        30.32R WCI   8
AITKIN         LGT RAIN  16   7  67 NW12G17   30.25F WCI   3
PINE RIVER     CLOUDY    16   9  73 NW6       30.30S WCI   7
BRAINERD       CLOUDY    18   8  65 NW12      30.29R WCI   5
STAPLES        CLOUDY    14   9  79 NW8       30.29F WCI   3
LONG PRAIRIE   FAIR      18  10  73 W13       30.30S WCI   4
LITTLE FALLS   CLEAR     18   5  57 NW7       30.30S WCI   8
LITCHFIELD     CLEAR     19  12  73 NW10G16   30.31S WCI   8
BUFFALO        CLEAR     20  11  67 NW12G18   30.31S WCI   8
MAPLE LAKE     CLEAR     20  13  75 NW7       30.32R WCI  11
HUTCHINSON     CLOUDY    21  13  71 NW14      30.31S WCI   8
$$
MNZ037-044-045-052-053-220300-
   East Central Minnesota

CITY           SKY/WX    TMP DP  RH WIND       PRES   REMARKS
PRINCETON      CLEAR     18  10  73 W6        30.29R WCI   9
MORA           MOCLDY    19  10  68 N5        30.29R WCI  13
CAMBRIDGE      CLEAR     21  10  63 NW9       30.29R WCI  11
RUSH CITY      CLEAR     19  10  68 N9        30.28R WCI   9
MOOSE LAKE     CLOUDY    19   9  63 N5        30.25R WCI  13
HINCKLEY       MOCLDY    19  10  68 N6        30.27S WCI  11
CLOQUET        FLURRIES  16   7  67 NW9       30.23R WCI   4
MCGREGOR       CLOUDY    19  10  68 NW12      30.26S WCI   7
$$
MNZ071>073-080-081-089-090-097-098-220300-
   Southwest Minnesota

CITY           SKY/WX    TMP DP  RH WIND       PRES   REMARKS
MONTEVIDEO     CLOUDY    19   9  63 N9G17     30.37R WCI   9
GRANITE FALLS  CLOUDY    19  11  73 W9        30.38R WCI   7
CANBY          CLOUDY    18  10  72 W6        30.38S WCI   9
MARSHALL       CLOUDY    16   8  71 W8        30.38R WCI   5
REDWOOD FALLS  CLEAR     20   8  60 NW12      30.35R WCI   8
OLIVIA         CLEAR     21  12  68 NW10      30.33R WCI  10
PIPESTONE      CLOUDY    18   7  62 NW7       30.35R WCI   8
WINDOM           N/A     18   3  53 W9        30.34R WCI   6
WORTHINGTON    CLOUDY    15   8  73 NW7       30.35R WCI   5
JACKSON        CLOUDY    19   9  63 NW13      30.33R WCI   7
SLAYTON        CLOUDY    17   9  71 NW9       30.35R WCI   5
$$
MNZ065>067-074>077-082>085-091>093-220300-
   South Central Minnesota

CITY           SKY/WX    TMP DP  RH WIND       PRES   REMARKS
MANKATO        CLEAR     20  11  68 NW14      30.32R WCI   7
NEW ULM        CLEAR     19   9  63 NW13      30.33R WCI   7
ST JAMES       CLEAR     19  10  68 W10       30.35R WCI   8
FAIRMONT       CLEAR     21  10  62 NW17      30.32R WCI   7
GLENCOE        CLEAR     22  13  69 NW12      30.31R WCI  10
FARIBAULT      CLEAR     21  12  68 NW9       30.28S WCI  11
OWATONNA       CLEAR     19  12  73 NW10      30.27S WCI   8
WASECA         CLEAR     21  12  68 W13       30.31R WCI   9
ALBERT LEA     CLEAR     21   9  58 NW10G17   30.27S WCI  10
$$
MNZ078>079-086>088-094>096-220300-
   Southeast Minnesota

CITY           SKY/WX    TMP DP  RH WIND       PRES   REMARKS
ROCHESTER      CLEAR     21  12  68 NW20      30.23R WCI   6
RED WING       CLEAR     25   7  46 NW8       30.25S WCI  16
STANTON        CLEAR     23  13  65 NW10      30.26S WCI  12
DODGE CENTER   CLEAR     19  10  68 NW13G18   30.24S WCI   7
WINONA         CLEAR     28  14  54 W7        30.25R WCI  21
AUSTIN         CLEAR     21  12  68 NW14      30.25S WCI   8
PRESTON        CLEAR     21  11  66 NW10      30.23S WCI  10
$$
ABBREVIATIONS USED IN REMARKS
   TC - TEMPERATURES IN CELSIUS
  WCI - WIND CHILL INDEX
   HX - HEAT INDEX
  VSB - VISIBILITY
$$




USA.gov is the U.S. government's official web portal to all federal, state and local government web resources and services.